This is the latest recevied weather packets stored in our database for station/object SA6BET-2. If no packets are shown the sender has not sent any weather packets the latest 10 day(s).
| Time | Temp. | Humidity | Pressure | Rain* | Wind** | Luminosity | Snow |
|---|---|---|---|---|---|---|---|
| 1777908862 | 27.22° C | 68% | 1012.8 hPa | - | - | - | - |
| 1777907961 | 27.22° C | 66% | 1012.8 hPa | - | - | - | - |
| 1777907061 | 26.67° C | 66% | 1013 hPa | - | - | - | - |
| 1777906161 | 28.33° C | 65% | 1013.1 hPa | - | - | - | - |
| 1777905261 | 28.33° C | 69% | 1013.2 hPa | - | - | - | - |
| 1777904361 | 28.33° C | 69% | 1013.2 hPa | - | - | - | - |
| 1777903460 | 28.33° C | 69% | 1013.4 hPa | - | - | - | - |
| 1777902560 | 29.44° C | 81% | 1013.6 hPa | - | - | - | - |
| 1777901660 | 28.89° C | 84% | 1013.6 hPa | - | - | - | - |
| 1777900760 | 27.78° C | 97% | 1013.8 hPa | - | - | - | - |
| 1777899860 | 27.78° C | 100% | 1013.8 hPa | - | - | - | - |
| 1777898959 | 27.22° C | 100% | 1014 hPa | - | - | - | - |
| 1777898059 | 28.89° C | 94% | 1014.1 hPa | - | - | - | - |
| 1777897159 | 28.33° C | 100% | 1014.2 hPa | - | - | - | - |
| 1777896274 | 26.11° C | 100% | 1014.5 hPa | - | - | - | - |
| 1777895370 | 25.56° C | 100% | 1014.8 hPa | - | - | - | - |
| 1777894470 | 27.22° C | 100% | 1014.8 hPa | - | - | - | - |
| 1777893573 | 26.67° C | 100% | 1015.1 hPa | - | - | - | - |
| 1777892670 | 26.11° C | 100% | 1015.4 hPa | - | - | - | - |
| 1777891769 | 26.11° C | 100% | 1015.7 hPa | - | - | - | - |
| 1777890869 | 25° C | 100% | 1015.8 hPa | - | - | - | - |
| 1777889972 | 25° C | 100% | 1015.8 hPa | - | - | - | - |
| 1777889075 | 25.56° C | 100% | 1015.8 hPa | - | - | - | - |
| 1777888169 | 25° C | 100% | 1015.9 hPa | - | - | - | - |
| 1777887270 | 23.89° C | 100% | 1016 hPa | - | - | - | - |
* Rain since midnight (hover to see other rain measurements)
** Current wind speed in m/s (hover to see current wind gust speed)